Regional Weather Roundup
Issued by NWS

Home | Current Version | Previous Version | Graphics & Text | Print | Product List | Glossary On
Versions: 1 2 3 4 5 6 7 8 9 10 11 12 13 14 15 16 17 18 19 20 21 22 23 24 25 26 27 28 29 30 31 32 33 34 35 36 37 38 39 40 41 42 43 44 45 46 47 48 49 50
000
ASUS43 KLMK 230602
RWRKY
KENTUCKY REGIONAL WEATHER ROUNDUP
NATIONAL WEATHER SERVICE LOUISVILLE KY
200 AM EDT WED APR 23 2014

NOTE "FAIR" INDICATES FEW OR NO CLOUDS BELOW 12,000 FEET
WITH NO SIGNIFICANT WEATHER AND/OR OBSTRUCTIONS TO VISIBILITY.

KYZ001>023-026-027-061>063-070>075-230700-
WESTERN AND SOUTH CENTRAL KENTUCKY

CITY           SKY/WX    TMP DP  RH WIND       PRES   REMARKS
PADUCAH        FAIR      49  41  74 CALM      29.98S
HENDERSON      FAIR      46  39  76 CALM      29.99R
OWENSBORO      FAIR      54  37  52 NE5       29.98S
HOPKINSVILLE   FAIR      53  39  60 SW3       29.97S
BOWLING GREEN  FAIR      50  40  68 CALM      29.96S
GLASGOW        NOT AVBL
$$

KYZ024-025-028>034-038-045-046-053-230700-
NORTH CENTRAL KENTUCKY

CITY           SKY/WX    TMP DP  RH WIND       PRES   REMARKS
LOUISVILLE/SDF FAIR      50  32  50 N7        30.00R
LOUISVILLE/LOU FAIR      51  31  46 N5        30.00R
FORT KNOX      FAIR      50  31  48 N8        29.98R
$$

KYZ035>037-039>044-047>052-055>060-089>105-230700-
NORTHEAST KENTUCKY

CITY           SKY/WX    TMP DP  RH WIND       PRES   REMARKS
LEXINGTON      FAIR      46  31  55 N3        29.98R
COVINGTON      FAIR      44  31  60 N6        29.98S
FRANKFORT      FAIR      47  30  51 CALM      29.98R
$$

KYZ054-064>069-076>088-106>120-230700-
SOUTHEAST KENTUCKY

CITY           SKY/WX    TMP DP  RH WIND       PRES   REMARKS
JACKSON        FAIR      49  31  49 N9        29.94R
LONDON         FAIR      52  31  44 N7        29.95R
SOMERSET       NOT AVBL
MIDDLESBORO    NOT AVBL
MONTICELLO     FAIR      50  32  50 N6        29.98R
$$




USA.gov is the U.S. government's official web portal to all federal, state and local government web resources and services.